DW4221 Weather Reports


time (UTC)temp
F
wind
direction
speed
knots
gust
knots
rain 1hr
in
rain 24hr
in
rain mn
in
humidity
%
barometer
mb
20260503233053 62 290 1.7 6.1 0.00 0.02 0.00 33 1001.8
20260503231552 61 187 0.9 7.8 0.00 0.02 0.00 36 1002.3
20260503230105 61 256 0.9 10.4 0.00 0.02 0.00 34 1002.2
20260503224559 62 296 1.7 12.2 0.00 0.02 0.00 35 1002.4
20260503223051 63 254 0.9 9.6 0.00 0.02 0.00 33 1002.3
20260503221552 63 194 3.5 9.6 0.00 0.02 0.00 33 1002.8
20260503220055 63 360 3.5 12.2 0.00 0.02 0.00 33 1002.8
20260503214551 63 235 3.5 8.7 0.00 0.02 0.00 32 1002.8
20260503213101 65 80 1.7 7.8 0.00 0.02 0.00 32 1002.9
20260503211609 64 197 2.6 7.8 0.00 0.02 0.00 33 1003.0
20260503210050 64 339 2.6 9.6 0.00 0.02 0.00 34 1003.1
20260503204552 62 81 5.2 14.8 0.00 0.02 0.00 33 1003.5
20260503203052 63 167 2.6 9.6 0.00 0.02 0.00 33 1003.6
20260503201552 62 238 3.5 9.6 0.00 0.02 0.00 34 1003.8
20260503200106 62 268 2.6 9.6 0.00 0.02 0.00 34 1003.8
20260503194601 62 347 3.5 11.3 0.00 0.02 0.00 33 1004.0
20260503193058 61 257 1.7 9.6 0.00 0.02 0.00 34 1004.2
20260503191555 61 248 3.5 13.0 0.00 0.02 0.00 36 1004.4
20260503190051 60 296 2.6 14.8 0.00 0.02 0.00 31 1004.5
20260503184601 61 252 3.5 13.0 0.00 0.02 0.00 30 1004.9
20260503183050 60 0 5.2 13.9 0.00 0.02 0.00 28 1005.0
20260503181609 61 273 2.6 9.6 0.00 0.02 0.00 31 1005.0
20260503180111 59 88 3.5 11.3 0.00 0.02 0.00 31 1005.2
20260503174558 59 34 4.3 19.1 0.00 0.02 0.00 29 1005.5
20260503173102 58 281 2.6 11.3 0.00 0.02 0.00 32 1005.6
20260503171548 59 351 2.6 13.0 0.00 0.02 0.00 34 1005.7
20260503081553 40 0 0.0 0.0 0.00 0.02 0.00 95 1006.0
20260503071600 44 0 0.0 0.0 0.00 0.02 0.00 94 1006.5
20260503070110 45 0 0.0 0.0 0.00 0.02 0.00 95 1006.8
20260503054553 46 0 0.0 0.0 0.00 0.02 0.00 95 1007.1
20260503053052 46 0 0.0 0.0 0.00 0.02 0.00 94 1007.3
20260503051558 46 0 0.0 0.0 0.00 0.02 0.00 95 1007.3
20260503050052 46 0 0.0 0.0 0.00 0.02 0.00 94 1007.6
20260503044602 46 0 0.0 0.0 0.00 0.02 0.02 94 1007.3
20260503043057 47 0 0.0 0.9 0.00 0.02 0.02 94 1007.6
20260503041550 47 0 0.0 0.9 0.00 0.02 0.02 93 1007.6
20260503040100 47 0 0.0 1.7 0.01 0.02 0.02 93 1007.8
20260503034600 47 0 0.0 0.0 0.01 0.02 0.02 92 1008.1
20260503033054 48 0 0.0 0.9 0.02 0.02 0.02 90 1008.3
20260503031555 48 0 0.0 0.0 0.02 0.02 0.02 88 1008.6
20260503030118 49 0 0.0 0.9 0.01 0.01 0.01 86 1008.9
20260503024550 50 0 0.0 1.7 0.01 0.01 0.01 83 1009.0
20260503023048 51 0 0.0 6.1 0.00 0.00 0.00 79 1009.1
20260503021550 53 243 0.9 6.1 0.00 0.00 0.00 69 1008.9
20260503020052 55 216 1.7 9.6 0.00 0.00 0.00 60 1008.9
20260503014601 56 232 0.9 8.7 0.00 0.00 0.00 54 1008.7
20260503013052 56 259 1.7 8.7 0.00 0.00 0.00 52 1008.6
20260503011558 57 304 0.9 8.7 0.00 0.00 0.00 50 1008.7
20260503010104 57 258 0.9 7.0 0.00 0.00 0.00 49 1008.5
20260503004551 58 5 1.7 8.7 0.00 0.00 0.00 47 1008.3
20260503003059 58 282 0.9 6.1 0.00 0.00 0.00 45 1008.4
20260503001555 58 234 0.9 4.3 0.00 0.00 0.00 43 1008.0
20260503000054 59 246 0.9 4.3 0.00 0.00 0.00 44 1008.3
20260502234554 59 0 0.9 5.2 0.00 0.00 0.00 42 1008.1